{"data":{"norad_id":52605,"intl_designator":"2022-052H","name":"STARLINK-4000","alt_names":[],"object_type":"PAYLOAD","status":"ACTIVE","operator":null,"country":"US","launch_date":"2022-05-14","launch_site_code":"AFETR","launch_vehicle":null,"mission":null,"orbit_class":"UNKNOWN","rcs_meters":null,"size_class":null,"mass_kg":null,"dimensions":null,"purposes":["comms"],"wikipedia_slug":null,"has_3d_model":false,"image_url":null,"decayed_at":null,"tle_current":{"epoch":"2026-09-20T03:47:00.807072Z","epoch_age_seconds":92882,"freshness":"FRESH","line1":"1 52605U 22052H   26263.15764823 -.00001162  00000+0 -23264-4 0  9996","line2":"2 52605  53.1610 116.9924 0001447  84.2479 275.8688 15.34381144240338","mean_motion":15.34381144,"eccentricity":0.0001447,"inclination_deg":53.161,"raan_deg":116.9924,"arg_perigee_deg":84.2479,"mean_anomaly_deg":275.8688,"bstar":-2.3264e-5,"rev_number":24033,"period_min":93.84891137583,"perigee_km":461.76940709436,"apogee_km":463.74916247917,"semimajor_km":6840.8962847868,"source":"CELESTRAK","updated_at":"2026-09-20T09:00:40.068824Z"}}}